Date,TemperatureHighF,TemperatureAvgF,TemperatureLowF,DewpointHighF,DewpointAvgF,DewpointLowF,HumidityHigh,HumidityAvg,HumidityLow,PressureMaxIn,PressureMinIn,WindSpeedMaxMPH,WindSpeedAvgMPH,GustSpeedMaxMPH,PrecipitationSumIn
2013-1-1,50.2,34.9,18.8,19.9,11.1,4.5,70,42,19,30.31,30.18,6,1,14,0.00
2013-1-2,53.5,37.8,21.6,9.7,6.7,2.8,51,29,16,30.26,30.09,7,1,13,0.00
2013-1-3,55.9,35.5,18.3,11.4,5.3,-0.4,56,31,13,30.30,30.16,7,1,16,0.00
2013-1-4,54.1,32.9,15.6,7.2,2.6,-1.9,51,31,13,30.36,30.21,3,0,7,0.00
2013-1-5,54.1,35.9,16.9,7.5,3.1,-2.6,46,27,13,30.39,30.11,2,0,6,0.00
2013-1-6,55.0,43.1,30.9,39.0,29.6,2.3,85,61,27,30.12,29.92,8,3,17,0.01
2013-1-7,59.0,43.4,28.1,30.4,24.8,16.4,88,52,20,30.09,29.98,8,2,16,0.00
2013-1-8,65.6,44.0,24.7,27.9,21.6,14.6,67,44,23,30.21,30.07,3,0,8,0.00
2013-1-9,63.9,47.8,28.8,31.5,25.3,18.4,69,44,26,30.18,29.80,11,2,17,0.00
2013-1-10,51.3,40.5,33.2,37.8,23.2,13.9,78,51,34,29.99,29.78,20,10,31,0.00
2013-1-11,42.6,36.2,29.5,21.7,18.2,12.0,65,48,36,30.12,29.97,19,6,34,0.00
2013-1-12,45.2,32.8,18.9,18.0,13.4,8.6,68,47,24,30.17,30.00,6,1,13,0.00
2013-1-13,44.3,30.0,11.7,19.3,8.0,-1.6,72,43,21,30.24,30.01,10,2,18,0.00
2013-1-14,39.8,29.5,17.8,1.1,-3.5,-7.3,41,25,14,30.40,30.19,5,1,11,0.00
2013-1-15,49.1,34.4,16.4,9.5,1.2,-8.2,44,25,15,30.56,30.38,6,2,16,0.00
2013-1-16,58.6,40.1,24.4,18.1,11.4,4.1,51,32,19,30.49,30.27,4,1,9,0.00
2013-1-17,62.4,41.8,18.1,14.8,8.0,1.5,54,29,12,30.39,30.20,6,1,12,0.00
2013-1-18,62.7,40.8,18.9,9.4,3.9,-3.1,45,24,11,30.32,30.16,5,1,11,0.00
2013-1-19,64.2,40.8,18.9,10.0,2.4,-4.8,46,22,9,30.35,30.17,3,1,8,0.00
2013-1-20,64.7,40.1,18.4,10.7,1.2,-6.2,38,21,9,30.30,30.11,3,0,8,0.00
2013-1-21,67.6,41.5,20.0,7.2,0.3,-5.8,36,20,8,30.26,30.09,4,1,11,0.00
2013-1-22,65.6,41.5,21.4,7.7,1.5,-7.9,39,20,9,30.25,30.08,3,0,7,0.00
2013-1-23,64.7,49.1,33.2,29.0,8.7,0.5,42,20,11,30.17,30.01,3,0,7,0.00
2013-1-24,56.5,51.5,47.0,50.3,44.7,28.1,93,78,43,30.14,30.00,6,2,11,0.13
2013-1-25,57.2,51.9,48.2,49.4,46.8,43.4,94,83,64,30.14,29.93,5,1,10,0.11
2013-1-26,62.0,42.3,46.1,50.6,7.2,-99.9,96,61,58,29.92,29.77,13,-162,21,0.04
2013-1-27,52.2,40.7,40.3,40.5,14.5,-99.9,87,47,34,29.93,29.84,15,-2,29,0.00
2013-1-28,48.2,37.1,36.6,25.0,7.9,-99.9,59,41,30,30.12,29.92,17,-81,26,0.00
2013-1-29,60.9,38.2,34.3,30.7,10.8,-99.9,71,47,26,30.19,30.01,11,-128,20,0.00
2013-1-30,63.2,36.3,27.9,32.0,8.3,-99.9,84,50,25,30.35,30.18,3,-150,8,0.00
2013-1-31,66.0,38.1,30.0,31.4,10.4,-99.9,81,49,25,30.30,30.12,5,-136,7,0.00
2013-2-1,66.9,42.6,29.1,32.3,17.5,-99.9,81,48,22,30.25,30.10,3,-80,7,0.00
2013-2-2,66.4,53.0,39.6,43.9,31.4,25.6,69,47,22,30.25,30.10,2,0,7,0.01
2013-2-3,68.3,44.8,39.5,45.4,13.7,-99.9,89,47,17,30.10,29.95,8,-170,13,0.00
2013-2-4,69.8,41.4,41.3,29.2,-7.4,-99.9,49,24,19,30.06,29.95,3,0,11,0.00
2013-2-5,74.6,46.6,30.6,42.9,17.8,-99.9,85,42,14,30.04,29.81,14,2,22,0.00
2013-2-6,65.3,40.6,35.9,41.5,10.0,-99.9,83,45,20,30.02,29.85,10,-145,25,0.00
2013-2-7,66.8,35.7,25.4,34.7,5.3,-99.9,65,43,20,30.12,29.82,12,-138,18,0.00
2013-2-8,51.0,40.1,34.6,33.6,28.5,22.9,82,64,39,29.86,29.75,10,5,19,0.00
2013-2-9,49.1,33.6,31.2,27.5,5.2,-99.9,72,46,27,30.02,29.81,15,-136,25,0.00
2013-2-10,54.1,31.2,21.3,28.4,1.3,-99.9,73,45,22,30.08,29.93,9,-151,17,0.00
2013-2-11,54.1,32.2,21.3,23.7,-2.5,-99.9,74,37,13,30.21,30.00,6,-127,11,0.00
2013-2-12,56.6,31.6,19.7,13.9,-7.9,-99.9,48,27,13,30.37,30.21,4,-140,8,0.00
2013-2-13,63.1,35.4,23.5,24.5,-1.2,-99.9,60,33,14,30.33,30.12,4,-140,10,0.00
2013-2-14,67.3,38.9,26.0,22.2,1.2,-99.9,59,32,15,30.25,30.10,7,-136,13,0.00
2013-2-15,69.3,43.5,31.2,21.6,2.6,-99.9,57,27,13,30.28,30.16,9,-115,14,0.00
2013-2-16,69.4,42.3,30.3,16.6,1.4,-99.9,48,24,11,30.33,29.93,5,-90,10,0.00
2013-2-17,69.9,49.6,29.1,32.0,19.4,8.9,63,34,14,30.01,29.81,21,4,21,0.00
2013-2-18,66.9,48.4,28.2,35.7,27.2,16.6,75,48,21,29.99,29.80,13,3,16,0.00
2013-2-19,51.7,42.8,35.9,38.8,32.7,26.3,87,68,49,29.80,29.57,14,6,25,0.04
2013-2-20,50.2,41.4,31.9,28.1,22.3,15.9,84,48,29,29.91,29.58,21,6,31,0.00
2013-2-21,55.7,43.1,30.0,28.5,22.8,12.9,73,48,20,30.06,29.89,9,4,22,0.00
2013-2-22,61.2,43.4,25.3,30.3,22.1,14.6,77,49,17,30.18,30.05,5,1,11,0.00
2013-2-23,59.8,48.0,32.1,31.1,26.1,19.2,63,44,26,30.08,29.82,30,8,42,0.00
2013-2-24,57.3,44.8,30.4,30.1,4.0,-5.2,62,20,8,30.20,30.02,13,3,21,0.00
2013-2-25,63.2,42.3,21.4,21.6,-1.0,-99.9,42,23,10,30.25,29.97,20,-21,24,0.00
2013-2-26,62.9,44.3,36.5,26.7,0.9,-99.9,58,24,11,30.12,29.95,14,-90,21,0.00
2013-2-27,62.3,43.7,28.2,14.4,-4.4,-99.9,38,19,11,30.32,30.12,8,-19,14,0.00
2013-2-28,67.4,40.9,25.3,17.6,-2.1,-99.9,47,24,8,30.41,30.29,6,-43,10,0.00
2013-3-1,74.2,42.6,29.5,19.7,-2.6,-99.9,54,24,11,30.44,30.18,12,-150,16,0.00
2013-3-2,76.0,51.9,31.8,23.5,10.7,-99.9,46,24,12,30.33,29.98,7,-40,10,0.00
2013-3-3,72.3,50.5,49.2,39.2,10.5,-99.9,56,29,18,29.99,29.80,20,-124,22,0.00
2013-3-4,70.8,46.6,43.6,39.1,13.8,-99.9,73,42,20,29.97,29.83,8,-137,19,0.00
2013-3-5,70.9,42.5,38.2,40.5,13.2,-99.9,78,50,25,30.02,29.87,11,-162,17,0.00
2013-3-6,59.6,44.4,39.8,40.5,25.9,-99.9,82,61,43,29.99,29.88,18,-56,20,0.00
2013-3-7,57.8,47.3,40.2,37.5,33.7,26.8,83,61,38,29.93,29.74,8,3,24,0.00
2013-3-8,49.2,39.4,36.0,37.8,22.4,-99.9,93,66,54,29.91,29.66,17,-77,24,0.09
2013-3-9,57.2,46.6,35.9,34.8,31.7,27.8,79,58,35,30.18,29.91,17,6,21,0.00
2013-3-10,64.7,42.9,27.8,36.5,23.9,-99.9,86,57,13,30.32,30.17,7,-14,11,0.00
2013-3-11,75.6,53.3,31.0,31.5,23.8,8.0,80,42,8,30.24,29.98,3,0,8,0.00
2013-3-12,80.7,57.5,33.4,29.7,23.3,14.2,72,35,9,30.12,29.96,5,1,11,0.00
2013-3-13,85.1,61.5,36.3,29.3,24.5,18.8,62,31,9,30.15,29.98,4,1,9,0.00
2013-3-14,90.5,65.7,40.3,37.5,29.2,23.8,58,30,10,30.11,29.90,7,1,13,0.00
2013-3-15,89.9,68.7,52.2,44.5,35.6,22.5,69,35,9,29.92,29.75,13,4,20,0.00
2013-3-16,77.7,29.6,53.8,43.2,-33.6,-99.9,60,22,21,29.84,29.73,18,-494,25,0.00
2013-3-17,77.6,17.9,57.2,33.5,-67.0,-99.9,38,6,12,29.90,29.71,19,-660,25,0.01
2013-3-18,76.8,43.7,47.0,34.4,-12.7,-99.9,54,22,11,29.94,29.80,14,-133,21,0.00
2013-3-19,75.8,53.0,-90.0,34.2,3.3,-99.9,44,22,16,30.36,29.84,18,-95,26,0.00
2013-3-20,74.6,61.3,53.3,53.4,30.5,-99.9,57,39,19,30.35,29.83,30,-1,30,0.00
2013-3-21,74.6,60.0,51.3,42.0,35.8,25.4,65,43,18,29.83,29.68,16,6,26,0.00
2013-3-22,73.0,53.5,49.6,34.9,21.5,-99.9,52,35,17,29.84,29.67,20,-59,34,0.00
2013-3-23,51.4,49.7,47.7,30.9,24.5,16.9,46,37,29,29.89,29.82,10,6,19,0.00
2013-3-24,-200.0,0.0,200.0,-99.9,-99.9,-99.9,0,0,100,29.95,29.78,0,0,0,0.00
2013-3-25,-200.0,0.0,200.0,-99.9,-99.9,-99.9,0,0,100,29.87,29.75,0,0,0,0.00
2013-3-26,-200.0,0.0,200.0,-99.9,-99.9,-99.9,0,0,100,29.81,29.73,0,-72,17,0.00
2013-3-27,-200.0,0.0,200.0,-99.9,-99.9,-99.9,0,0,100,29.88,29.75,0,-999,0,0.00
2013-3-28,-200.0,0.0,200.0,-99.9,-99.9,-99.9,0,0,100,29.92,29.86,0,-999,0,0.00
2013-4-2,-200.0,0.0,200.0,-99.9,-99.9,-99.9,0,0,100,29.96,29.91,0,0,0,0.00
2013-4-7,-200.0,0.0,200.0,-99.9,-99.9,-99.9,0,0,100,29.85,29.62,0,0,0,0.00
2013-4-8,-200.0,0.0,200.0,-99.9,-99.9,-99.9,0,0,100,29.54,29.53,0,-999,0,0.00
2013-4-9,49.6,6.3,45.8,28.9,-83.3,-99.9,48,9,37,29.96,29.75,10,1,18,0.00
2013-4-10,-200.0,0.0,200.0,-99.9,-99.9,-99.9,0,0,100,30.05,29.86,0,0,0,0.00
2013-4-11,-200.0,0.0,200.0,-99.9,-99.9,-99.9,0,0,100,29.86,29.61,0,0,0,0.00
2013-4-12,-200.0,0.0,200.0,-99.9,-99.9,-99.9,0,0,100,29.75,29.63,0,0,0,0.00
2013-4-13,80.9,38.7,58.4,46.7,-27.8,-99.9,62,15,11,29.73,29.52,17,3,28,0.26
2013-4-14,75.1,56.3,54.4,43.1,22.0,-99.9,62,36,22,29.62,29.55,20,-107,31,0.00
2013-4-15,66.0,55.6,47.0,43.3,37.8,22.2,79,53,21,29.69,29.57,21,11,41,0.00
2013-4-16,57.0,48.8,38.3,28.5,23.0,10.5,53,38,17,29.90,29.70,16,9,30,0.00
2013-4-17,65.0,51.9,36.0,24.0,13.1,-99.9,52,25,14,30.13,29.97,8,3,18,0.00
2013-4-18,66.8,24.8,38.9,17.1,-41.7,-99.9,39,16,22,30.26,30.06,10,-371,13,0.00
2013-4-23,74.6,18.3,52.8,37.4,-65.2,-99.9,36,14,11,29.91,29.65,14,2,19,0.00
2013-4-24,83.4,24.4,46.2,54.4,-43.3,-99.9,64,38,20,29.97,29.62,11,4,16,0.00
2013-4-25,62.7,15.9,49.9,43.2,-63.3,-99.9,76,26,36,29.92,29.71,11,2,18,0.00
2013-4-26,78.8,19.7,52.2,48.0,-59.4,-99.9,62,29,13,30.04,29.92,7,1,12,0.00
2013-4-27,90.1,38.1,52.0,39.1,-27.5,-99.9,50,21,8,30.09,29.84,12,2,20,0.00
2013-4-28,68.8,44.3,67.3,33.3,-13.4,-99.9,30,27,26,29.86,29.79,3,2,7,0.00
2013-4-29,74.0,32.9,73.2,37.8,-41.0,-99.9,27,10,17,29.59,29.51,11,-550,11,0.00
2013-4-30,-200.0,0.0,200.0,-99.9,-99.9,-99.9,0,0,100,29.52,29.46,0,-999,0,0.00
2013-5-6,52.5,38.7,50.7,42.2,6.2,-99.9,69,60,68,29.88,29.85,11,-79,17,0.11
2013-5-7,67.3,46.3,46.4,59.7,2.5,-99.9,83,51,31,29.92,29.84,16,-54,16,0.00
2013-5-8,72.3,33.6,48.9,55.4,-17.3,-99.9,81,38,30,29.96,29.87,12,-232,12,0.00
2013-5-9,77.4,28.4,50.2,50.6,-48.5,-99.9,76,22,29,29.98,29.81,16,-296,16,0.00
2013-5-10,64.5,15.8,57.6,48.5,-65.6,-99.9,58,13,56,30.00,29.88,11,-644,11,0.00
2013-5-11,86.7,26.0,63.5,46.6,-57.9,-99.9,46,10,15,30.03,29.86,8,-517,8,0.00
2013-5-12,79.0,25.8,62.6,49.9,-49.5,-99.9,44,13,21,30.03,29.81,6,-623,7,0.00
2013-5-13,88.2,39.3,64.8,44.1,-31.0,-99.9,37,14,16,29.95,29.75,6,-441,10,0.00
2013-5-14,87.6,40.7,3.9,43.5,-29.4,-99.9,38,16,9,29.95,29.70,32,-296,32,0.00
2013-5-15,72.0,21.7,65.8,44.2,-55.3,-99.9,44,12,26,29.95,29.71,20,-449,20,0.00
2013-5-16,70.3,13.3,51.1,38.8,-85.2,-99.9,47,7,31,29.79,29.71,18,-649,18,0.00
2013-5-17,76.8,22.4,58.0,44.2,-55.7,-99.9,60,17,21,29.83,29.72,19,-452,19,0.00
2013-5-18,67.9,5.4,66.8,26.5,-90.7,-99.9,21,2,21,29.89,29.79,25,-858,25,0.00
2013-5-19,75.3,13.3,64.2,34.2,-77.2,-99.9,28,4,14,29.89,29.73,10,-771,16,0.00
2013-5-20,86.5,45.8,54.7,35.9,-13.0,-99.9,43,18,8,29.95,29.76,14,-255,14,0.00
2013-5-21,89.7,50.5,55.0,40.6,-15.9,-99.9,39,19,11,29.83,29.64,18,-136,18,0.00
2013-5-22,76.7,57.9,53.3,39.8,14.4,-99.9,39,25,12,29.72,29.60,24,-74,25,0.00
2013-5-23,74.4,53.1,49.4,25.6,-29.4,-99.9,30,12,11,29.78,29.65,20,-73,28,0.00
2013-5-24,79.0,43.2,41.2,35.6,-9.7,-99.9,44,20,12,29.87,29.72,10,-222,14,0.00
2013-5-25,-200.0,0.0,200.0,-99.9,-99.9,-99.9,0,0,100,29.81,29.70,1,-985,1,0.00
2013-6-27,-200.0,0.0,200.0,-99.9,-99.9,-99.9,0,0,100,29.90,29.90,0,0,0,0.00
2013-6-28,-200.0,0.0,200.0,-99.9,-99.9,-99.9,0,0,100,29.92,29.78,0,0,0,0.00
2013-6-29,-200.0,0.0,200.0,-99.9,-99.9,-99.9,0,0,100,29.82,29.70,0,0,0,0.00
2013-6-30,-200.0,0.0,200.0,-99.9,-99.9,-99.9,0,0,100,29.76,29.65,0,0,0,0.00
2013-7-1,-200.0,0.0,200.0,-99.9,-99.9,-99.9,0,0,100,29.80,29.69,0,0,0,0.00
2013-7-2,-200.0,0.0,200.0,-99.9,-99.9,-99.9,0,0,100,29.86,29.77,0,0,0,0.00
2013-7-3,-200.0,0.0,200.0,-99.9,-99.9,-99.9,0,0,100,29.79,29.78,0,-999,0,0.00
2013-7-4,-200.0,0.0,200.0,-99.9,-99.9,-99.9,0,0,100,29.69,29.60,0,-999,0,0.00
2013-7-5,-200.0,0.0,200.0,-99.9,-99.9,-99.9,0,0,100,29.68,29.60,0,-999,0,0.00
2013-7-6,-200.0,0.0,200.0,-99.9,-99.9,-99.9,0,0,100,29.68,29.61,0,-999,0,0.00
2013-7-7,-200.0,0.0,200.0,-99.9,-99.9,-99.9,0,0,100,29.76,29.66,0,-999,0,0.00
2013-7-8,-15.0,-0.1,-15.0,-99.9,-99.9,-99.9,0,0,100,30.30,29.76,10,-991,10,0.00
2013-7-9,-200.0,0.0,200.0,-99.9,-99.9,-99.9,0,0,100,29.94,29.84,0,-999,0,0.00
2013-7-10,-200.0,0.0,200.0,-99.9,-99.9,-99.9,0,0,100,29.89,29.76,0,-999,0,0.00
2013-7-11,-200.0,0.0,200.0,-99.9,-99.9,-99.9,0,0,100,29.86,29.75,0,-999,0,0.00
2013-7-12,-200.0,0.0,200.0,-99.9,-99.9,-99.9,0,0,100,29.81,29.79,0,-999,0,0.00
2013-7-13,-200.0,0.0,200.0,-99.9,-99.9,-99.9,0,0,100,29.86,29.74,0,0,0,0.00
2013-7-14,-200.0,0.0,200.0,-99.9,-99.9,-99.9,0,0,100,29.86,29.74,0,0,0,0.00
2013-7-15,73.9,0.8,73.9,26.3,-98.5,-99.9,20,1,17,29.77,29.68,7,0,7,0.00
2013-7-16,69.8,7.9,59.0,29.1,-84.7,-99.9,26,7,19,29.87,29.70,3,0,6,0.00
2013-7-17,70.6,17.6,62.1,49.4,-68.2,-99.9,47,14,27,29.93,29.80,2,-269,3,0.00
2013-7-18,-200.0,0.0,200.0,-99.9,-99.9,-99.9,0,0,100,29.91,29.75,0,-999,0,0.00
2013-7-19,-200.0,0.0,200.0,-99.9,-99.9,-99.9,0,0,100,29.81,29.68,0,-999,0,0.00
2013-7-20,81.6,1.5,81.4,51.9,-98.2,-99.9,36,0,36,29.75,29.59,8,-973,8,0.00
2013-7-21,81.4,10.0,75.1,52.4,-87.1,-99.9,41,4,23,29.81,29.59,12,-800,12,0.00
2013-7-22,124.4,25.7,69.4,61.8,-56.4,-99.9,71,21,37,29.88,29.58,8,-580,8,0.00
2013-7-23,79.6,24.6,69.8,60.8,-58.1,-99.9,71,17,29,29.91,29.63,11,-507,11,0.00
2013-7-24,85.9,24.3,69.8,52.0,-62.7,-99.9,52,11,40,29.86,29.66,13,-618,13,0.00
2013-7-25,83.8,11.1,70.8,43.3,-89.3,-99.9,37,3,37,29.88,29.73,19,-828,19,0.00
2013-7-26,82.6,25.2,78.3,49.9,-87.2,-99.9,36,3,36,29.96,29.77,6,-615,19,0.00
2013-7-27,79.9,8.4,73.2,50.0,-87.7,-99.9,44,8,41,29.90,29.69,3,-758,3,0.00
2013-7-28,74.0,1.4,74.0,35.9,-97.3,-99.9,30,1,25,29.76,29.68,11,-863,11,0.00
2013-7-29,74.0,10.8,63.9,35.7,-84.6,-99.9,34,3,21,29.89,29.68,8,-758,8,0.00
2013-7-30,72.7,18.3,69.8,31.6,-66.7,-99.9,22,5,21,29.96,29.82,5,-721,5,0.00
2013-7-31,-200.0,0.0,200.0,-99.9,-99.9,-99.9,0,0,100,29.96,29.83,4,-954,4,0.00
2013-8-1,65.2,0.5,65.2,-99.9,-99.9,-99.9,0,0,100,29.87,29.75,5,-987,5,0.00
2013-8-2,-200.0,0.0,200.0,-99.9,-99.9,-99.9,0,0,100,29.81,29.78,0,-999,0,0.00
2013-8-23,66.1,0.6,66.1,37.6,-98.5,-99.9,35,2,35,29.79,29.62,2,0,3,0.00
2013-8-24,-200.0,0.0,200.0,-99.9,-99.9,-99.9,0,0,100,29.80,29.66,4,0,7,0.00
2013-8-25,-200.0,0.0,200.0,-99.9,-99.9,-99.9,0,0,100,29.86,29.75,5,0,5,0.00
2013-8-26,-200.0,0.0,200.0,-99.9,-99.9,-99.9,0,0,100,29.91,29.76,0,0,0,0.00
2013-8-27,-200.0,0.0,200.0,-99.9,-99.9,-99.9,0,0,100,29.83,29.69,0,0,0,0.00
2013-8-28,79.0,2.0,74.2,-99.9,-99.9,-99.9,0,0,100,29.84,29.74,6,0,8,0.00
2013-8-29,88.4,13.4,67.6,-99.9,-99.9,-99.9,0,0,100,29.91,29.72,12,-72,12,0.00
2013-8-30,-200.0,0.0,200.0,-99.9,-99.9,-99.9,0,0,100,29.91,29.89,2,-908,2,0.00
2013-8-31,-200.0,0.0,200.0,-99.9,-99.9,-99.9,0,0,100,29.90,29.78,0,0,0,0.00
2013-9-1,-200.0,0.0,200.0,-99.9,-99.9,-99.9,0,0,100,30.82,29.76,0,0,0,0.00
2013-9-2,-90.0,-0.5,-90.0,-99.9,-99.9,-99.9,0,0,100,30.79,29.73,0,-536,0,0.00
2013-9-3,72.1,4.5,70.1,55.9,-96.8,-99.9,58,2,56,29.86,29.70,6,-728,6,0.00
2013-9-4,83.2,3.8,81.1,43.0,-97.1,-99.9,44,1,26,29.90,29.74,8,-917,8,0.00
2013-9-5,81.8,6.5,67.8,47.3,-97.6,-99.9,43,3,43,29.86,29.70,7,-753,7,0.00
2013-9-6,71.5,1.1,71.5,-99.9,-99.9,-99.9,44,1,44,29.86,29.72,6,-854,6,0.00
2013-9-7,-200.0,0.0,200.0,-99.9,-99.9,-99.9,0,0,100,29.84,29.70,1,-932,1,0.00
2013-9-8,-200.0,0.0,200.0,-99.9,-99.9,-99.9,0,0,100,29.79,29.65,6,-940,6,0.00
2013-9-9,77.4,14.9,69.8,47.7,-72.6,-99.9,42,8,24,29.77,29.56,7,-603,10,0.00
2013-9-10,79.2,48.4,65.3,45.8,-6.6,-99.9,38,21,15,29.73,29.58,13,-288,17,0.00
2013-9-11,82.8,55.3,64.7,37.5,9.1,-99.9,32,24,27,29.79,29.72,9,-148,9,0.00
2013-9-12,-200.0,0.0,200.0,-99.9,-99.9,-99.9,0,0,100,29.84,29.70,0,0,0,0.00
2013-9-13,-200.0,0.0,200.0,-99.9,-99.9,-99.9,0,0,100,29.75,29.59,0,0,0,0.00
2013-9-14,-200.0,0.0,200.0,-99.9,-99.9,-99.9,0,0,100,29.68,29.56,0,0,0,0.00
2013-9-15,-200.0,0.0,200.0,-99.9,-99.9,-99.9,0,0,100,29.72,29.64,0,-443,0,0.00
2013-9-16,-200.0,0.0,200.0,-99.9,-99.9,-99.9,0,0,100,29.78,29.66,0,-999,0,0.00
2013-9-17,-200.0,0.0,200.0,-99.9,-99.9,-99.9,0,0,100,29.71,29.60,0,-999,0,0.00
2013-9-18,-200.0,0.0,200.0,-99.9,-99.9,-99.9,0,0,100,29.71,29.62,0,-999,0,0.00
2013-9-19,-200.0,0.0,200.0,-99.9,-99.9,-99.9,0,0,100,29.77,29.65,0,-999,0,0.00
2013-9-20,-200.0,0.0,200.0,-99.9,-99.9,-99.9,0,0,100,29.73,29.66,0,-999,0,0.00
2013-9-21,-200.0,0.0,200.0,-99.9,-99.9,-99.9,0,0,100,29.73,29.63,0,-999,0,0.00
2013-9-22,-200.0,0.0,200.0,-99.9,-99.9,-99.9,0,0,100,29.80,29.67,0,-999,0,0.00
2013-9-23,-200.0,0.0,200.0,-99.9,-99.9,-99.9,0,0,100,29.89,29.78,0,-999,0,0.00
2013-9-24,-200.0,0.0,200.0,-99.9,-99.9,-99.9,0,0,100,29.83,29.83,0,-999,0,0.00
2013-9-25,-200.0,0.0,200.0,-99.9,-99.9,-99.9,0,0,100,29.70,29.56,0,0,0,0.00
2013-9-26,-200.0,0.0,200.0,-99.9,-99.9,-99.9,0,0,100,29.80,29.59,0,0,0,0.00
2013-9-27,-200.0,0.0,200.0,-99.9,-99.9,-99.9,0,0,100,29.97,29.80,0,0,0,0.00
2013-9-28,-200.0,0.0,200.0,-99.9,-99.9,-99.9,0,0,100,30.02,29.90,0,-590,0,0.00
2013-9-29,-200.0,0.0,200.0,-99.9,-99.9,-99.9,0,0,100,29.98,29.86,0,-999,0,0.00
2013-9-30,-200.0,0.0,200.0,-99.9,-99.9,-99.9,0,0,100,29.90,29.76,0,-999,0,0.00
2013-10-1,-200.0,0.0,200.0,-99.9,-99.9,-99.9,0,0,100,29.82,29.72,0,-999,0,0.00
2013-10-2,-200.0,0.0,200.0,-99.9,-99.9,-99.9,0,0,100,29.80,29.70,0,-999,0,0.00
2013-10-4,-200.0,0.0,200.0,-99.9,-99.9,-99.9,0,0,100,30.00,29.99,0,-999,0,0.00
2013-10-5,-200.0,0.0,200.0,-99.9,-99.9,-99.9,0,0,100,30.20,30.06,0,0,0,0.00
2013-10-6,-200.0,0.0,200.0,-99.9,-99.9,-99.9,0,0,100,30.11,29.93,0,0,0,0.00
2013-10-7,-200.0,0.0,200.0,-99.9,-99.9,-99.9,0,0,100,29.94,29.76,0,0,0,0.00
2013-10-8,-200.0,0.0,200.0,-99.9,-99.9,-99.9,0,0,100,29.78,29.60,0,0,0,0.00
2013-10-9,-200.0,0.0,200.0,-99.9,-99.9,-99.9,0,0,100,29.60,29.49,0,0,0,0.00
2013-10-10,-200.0,0.0,200.0,-99.9,-99.9,-99.9,0,0,100,29.86,29.83,0,-999,0,0.00
2013-10-11,-200.0,0.0,200.0,-99.9,-99.9,-99.9,0,0,100,29.95,29.81,0,-999,0,0.00
2013-10-12,-200.0,0.0,200.0,-99.9,-99.9,-99.9,0,0,100,29.88,29.73,0,-999,0,0.00
2013-10-13,-200.0,0.0,200.0,-99.9,-99.9,-99.9,0,0,100,29.78,29.76,0,-999,0,0.00
2013-10-18,-200.0,0.0,200.0,-99.9,-99.9,-99.9,0,0,100,30.00,29.89,0,0,0,0.00
2013-10-19,-200.0,0.0,200.0,-99.9,-99.9,-99.9,0,0,100,30.02,29.89,0,0,0,0.00
2013-10-20,-200.0,0.0,200.0,-99.9,-99.9,-99.9,0,0,100,29.91,29.77,0,0,0,0.00
2013-10-21,-200.0,0.0,200.0,-99.9,-99.9,-99.9,0,0,100,29.93,29.82,0,0,0,0.00
2013-10-22,-200.0,0.0,200.0,-99.9,-99.9,-99.9,0,0,100,29.97,29.81,0,0,0,0.00
2013-10-23,-200.0,0.0,200.0,-99.9,-99.9,-99.9,0,0,100,29.86,29.75,0,0,0,0.00
2013-10-24,-200.0,0.0,200.0,-99.9,-99.9,-99.9,0,0,100,29.91,29.80,0,-277,0,0.00
2013-10-25,-200.0,0.0,200.0,-99.9,-99.9,-99.9,0,0,100,30.03,29.91,0,-999,0,0.00
2013-10-26,53.8,0.4,53.8,-99.9,-99.9,-99.9,0,0,100,30.06,29.91,3,-960,3,0.00
2013-10-27,57.8,8.2,51.7,20.4,-94.2,-99.9,29,1,29,29.94,29.58,18,-817,18,0.00
2013-10-28,-200.0,0.0,200.0,-99.9,-99.9,-99.9,0,0,100,29.75,29.55,7,-979,7,0.00
2013-10-29,56.2,5.6,52.3,35.7,-94.1,-99.9,69,3,46,29.88,29.75,13,-755,16,0.00
2013-10-30,45.4,6.7,40.6,33.3,-79.3,-99.9,69,17,57,30.01,29.85,6,-624,6,0.00
2013-10-31,56.9,28.9,33.7,44.3,-33.1,-99.9,74,33,22,30.18,29.96,3,-290,3,0.00
2013-11-1,74.0,41.5,33.5,29.8,-6.3,-99.9,49,25,18,30.22,29.97,7,-173,7,0.00
2013-11-2,73.2,42.3,32.8,31.8,1.0,-99.9,52,28,17,30.07,29.76,7,-140,12,0.00
2013-11-3,70.4,19.5,45.5,39.7,-64.7,-99.9,56,14,38,29.77,29.67,12,-78,12,0.00
2013-11-4,56.2,39.7,44.9,32.4,3.7,-99.9,57,36,28,29.94,29.72,11,-153,12,0.00
2013-11-5,69.6,43.6,31.0,27.4,2.9,-99.9,60,28,13,30.20,29.95,117,-90,117,0.00
2013-11-6,67.4,37.5,29.1,27.4,-10.9,-99.9,35,19,11,30.37,30.17,10,-98,10,0.00
2013-11-7,69.8,35.9,34.3,24.9,-18.0,-99.9,35,19,18,30.25,30.01,5,-163,5,0.00
2013-11-8,68.8,37.0,34.0,30.7,-16.8,-99.9,43,22,15,30.08,29.86,3,-184,6,0.00
2013-11-9,53.8,27.4,37.3,21.4,-34.6,-99.9,36,16,19,30.07,29.94,3,-297,3,0.00
2013-11-10,55.3,30.1,36.3,26.8,-37.1,-99.9,34,16,21,30.17,30.06,7,-230,7,0.00
2013-11-11,73.0,30.4,32.4,22.3,-29.3,-99.9,39,17,17,30.19,30.04,3,-312,3,0.00
2013-11-12,55.4,23.5,42.1,17.1,-52.8,-99.9,31,11,22,30.23,30.09,2,-467,2,0.00
2013-11-13,55.1,17.4,36.0,27.9,-63.8,-99.9,35,10,25,30.19,29.96,3,-536,3,0.00
2013-11-14,60.5,23.0,41.9,30.5,-87.5,-99.9,46,5,42,30.05,29.62,183,-417,183,0.00
2013-11-15,61.6,31.5,49.5,36.6,-80.9,-99.9,61,8,61,29.66,29.51,17,-260,17,0.00
2013-11-16,62.1,52.4,43.2,42.4,35.8,25.5,73,54,44,29.78,29.63,27,6,27,0.00
2013-11-17,59.5,35.1,41.6,42.4,-19.4,-99.9,72,36,40,30.05,29.78,7,-216,10,0.00
2013-11-18,65.0,27.5,34.9,41.6,-23.2,-99.9,69,36,49,30.12,29.95,11,-298,11,0.00
2013-11-19,60.7,35.2,42.3,41.1,-15.5,-99.9,71,38,51,29.97,29.80,14,-148,14,0.00
2013-11-20,67.8,55.2,44.3,52.0,41.5,32.1,85,62,38,29.85,29.69,17,4,17,0.00
2013-11-21,57.6,36.0,45.2,53.3,-1.2,-99.9,90,55,67,29.87,29.69,11,-213,25,0.00